Time,TemperatureF,DewpointF,PressureIn,WindDirection,WindDirectionDegrees,WindSpeedMPH,WindSpeedGustMPH,Humidity,HourlyPrecipIn,Conditions,Clouds,dailyrainin,SoftwareType,DateUTC
2013-05-14 00:01:00,69.0,55.0,29.80,SSW,211,0.0,5.0,61,0.00,,,0.00,VWS V14.00,2013-05-14 05:01:00,
2013-05-14 00:06:00,68.9,55.4,29.80,South,188,2.0,5.0,62,0.00,,,0.00,VWS V14.00,2013-05-14 05:06:00,
2013-05-14 00:11:00,68.8,55.3,29.80,South,190,0.0,5.0,62,0.00,,,0.00,VWS V14.00,2013-05-14 05:11:00,
2013-05-14 00:16:00,68.7,55.6,29.80,SSW,209,0.0,5.0,63,0.00,,,0.00,VWS V14.00,2013-05-14 05:16:00,
2013-05-14 00:21:00,68.5,55.4,29.80,South,178,1.0,5.0,63,0.00,,,0.00,VWS V14.00,2013-05-14 05:21:00,
2013-05-14 00:26:00,68.4,55.3,29.80,SSW,200,0.0,5.0,63,0.00,,,0.00,VWS V14.00,2013-05-14 05:26:00,
2013-05-14 00:31:00,68.3,55.7,29.80,SSW,198,0.0,5.0,64,0.00,,,0.00,VWS V14.00,2013-05-14 05:31:00,
2013-05-14 00:36:00,68.1,55.5,29.80,South,190,0.0,4.0,64,0.00,,,0.00,VWS V14.00,2013-05-14 05:36:00,
2013-05-14 00:41:00,68.0,55.4,29.80,South,178,0.0,6.0,64,0.00,,,0.00,VWS V14.00,2013-05-14 05:41:00,
2013-05-14 00:46:00,67.9,55.7,29.79,South,184,0.0,6.0,65,0.00,,,0.00,VWS V14.00,2013-05-14 05:46:00,
2013-05-14 00:51:00,67.7,55.5,29.79,SW,225,0.0,6.0,65,0.00,,,0.00,VWS V14.00,2013-05-14 05:51:00,
2013-05-14 00:56:00,67.6,55.8,29.79,SSE,160,0.0,6.0,66,0.00,,,0.00,VWS V14.00,2013-05-14 05:56:00,
2013-05-14 01:01:00,67.4,55.7,29.79,South,183,0.0,6.0,66,0.00,,,0.00,VWS V14.00,2013-05-14 06:01:00,
2013-05-14 01:06:00,67.2,55.5,29.79,SSW,211,0.0,0.0,66,0.00,,,0.00,VWS V14.00,2013-05-14 06:06:00,
2013-05-14 01:11:00,67.1,55.8,29.78,SSW,205,0.0,5.0,67,0.00,,,0.00,VWS V14.00,2013-05-14 06:11:00,
2013-05-14 01:16:00,66.9,55.6,29.78,SSW,200,0.0,5.0,67,0.00,,,0.00,VWS V14.00,2013-05-14 06:16:00,
2013-05-14 01:21:00,66.8,55.5,29.78,SSW,196,0.0,5.0,67,0.00,,,0.00,VWS V14.00,2013-05-14 06:21:00,
2013-05-14 01:26:00,66.6,55.7,29.78,South,191,0.0,5.0,68,0.00,,,0.00,VWS V14.00,2013-05-14 06:26:00,
2013-05-14 01:31:00,66.5,55.6,29.78,SSW,194,0.0,5.0,68,0.00,,,0.00,VWS V14.00,2013-05-14 06:31:00,
2013-05-14 01:36:00,66.3,55.8,29.78,SSW,196,0.0,0.0,69,0.00,,,0.00,VWS V14.00,2013-05-14 06:36:00,
2013-05-14 01:41:00,66.1,55.7,29.78,SSW,211,0.0,1.0,69,0.00,,,0.00,VWS V14.00,2013-05-14 06:41:00,
2013-05-14 01:46:00,66.0,56.0,29.77,SSW,205,0.0,4.0,70,0.00,,,0.00,VWS V14.00,2013-05-14 06:46:00,
2013-05-14 01:51:00,65.9,55.8,29.77,SSW,210,5.0,5.0,70,0.00,,,0.00,VWS V14.00,2013-05-14 06:51:00,
2013-05-14 01:56:00,65.9,56.2,29.77,SW,217,5.0,7.0,71,0.00,,,0.00,VWS V14.00,2013-05-14 06:56:00,
2013-05-14 02:01:00,65.9,56.2,29.77,SW,232,4.0,7.0,71,0.00,,,0.00,VWS V14.00,2013-05-14 07:01:00,
2013-05-14 02:06:00,65.9,56.2,29.77,SSW,210,0.0,5.0,71,0.00,,,0.00,VWS V14.00,2013-05-14 07:06:00,
2013-05-14 02:11:00,65.9,56.2,29.77,SSW,209,0.0,5.0,71,0.00,,,0.00,VWS V14.00,2013-05-14 07:11:00,
2013-05-14 02:16:00,65.8,56.5,29.77,SSW,211,4.0,5.0,72,0.00,,,0.00,VWS V14.00,2013-05-14 07:16:00,
2013-05-14 02:21:00,65.8,56.5,29.77,SSW,211,0.0,5.0,72,0.00,,,0.00,VWS V14.00,2013-05-14 07:21:00,
2013-05-14 02:26:00,65.6,56.3,29.76,SSW,199,2.0,5.0,72,0.00,,,0.00,VWS V14.00,2013-05-14 07:26:00,
2013-05-14 02:31:00,65.5,56.2,29.76,SW,218,3.0,6.0,72,0.00,,,0.00,VWS V14.00,2013-05-14 07:31:00,
2013-05-14 02:36:00,65.4,56.5,29.76,SSW,202,0.0,1.0,73,0.00,,,0.00,VWS V14.00,2013-05-14 07:36:00,
2013-05-14 02:41:00,65.3,56.4,29.76,SSW,202,0.0,4.0,73,0.00,,,0.00,VWS V14.00,2013-05-14 07:41:00,
2013-05-14 02:46:00,65.3,56.4,29.76,SSW,213,5.0,5.0,73,0.00,,,0.00,VWS V14.00,2013-05-14 07:46:00,
2013-05-14 02:51:00,65.2,56.7,29.76,SSW,206,0.0,6.0,74,0.00,,,0.00,VWS V14.00,2013-05-14 07:51:00,
2013-05-14 02:56:00,65.1,56.6,29.75,SW,219,0.0,6.0,74,0.00,,,0.00,VWS V14.00,2013-05-14 07:56:00,
2013-05-14 03:01:00,65.0,56.5,29.75,SW,219,0.0,6.0,74,0.00,,,0.00,VWS V14.00,2013-05-14 08:01:00,
2013-05-14 03:06:00,64.9,56.4,29.75,SW,217,2.0,2.0,74,0.00,,,0.00,VWS V14.00,2013-05-14 08:06:00,
2013-05-14 03:11:00,64.8,56.3,29.75,SW,214,0.0,4.0,74,0.00,,,0.00,VWS V14.00,2013-05-14 08:11:00,
2013-05-14 03:16:00,64.6,56.1,29.75,SSW,213,0.0,4.0,74,0.00,,,0.00,VWS V14.00,2013-05-14 08:16:00,
2013-05-14 03:21:00,64.4,56.3,29.75,SSW,211,0.0,4.0,75,0.00,,,0.00,VWS V14.00,2013-05-14 08:21:00,
2013-05-14 03:26:00,64.3,56.2,29.75,SSW,211,0.0,4.0,75,0.00,,,0.00,VWS V14.00,2013-05-14 08:26:00,
2013-05-14 03:31:00,64.1,56.0,29.74,SSW,210,0.0,4.0,75,0.00,,,0.00,VWS V14.00,2013-05-14 08:31:00,
2013-05-14 03:36:00,63.9,56.2,29.74,SSW,209,0.0,0.0,76,0.00,,,0.00,VWS V14.00,2013-05-14 08:36:00,
2013-05-14 03:41:00,63.8,56.1,29.74,SSW,209,0.0,0.0,76,0.00,,,0.00,VWS V14.00,2013-05-14 08:41:00,
2013-05-14 03:46:00,63.6,55.9,29.74,SSW,209,0.0,0.0,76,0.00,,,0.00,VWS V14.00,2013-05-14 08:46:00,
2013-05-14 03:51:00,63.4,55.7,29.74,SSW,209,0.0,0.0,76,0.00,,,0.00,VWS V14.00,2013-05-14 08:51:00,
2013-05-14 03:56:00,63.2,55.9,29.74,SSW,208,0.0,0.0,77,0.00,,,0.00,VWS V14.00,2013-05-14 08:56:00,
2013-05-14 04:00:00,63.0,55.7,29.74,SSW,207,0.0,0.0,77,0.00,,,0.00,VWS V14.00,2013-05-14 09:00:00,
2013-05-14 04:05:00,62.8,55.8,29.73,SSW,207,0.0,0.0,78,0.00,,,0.00,VWS V14.00,2013-05-14 09:05:00,
2013-05-14 04:10:00,62.7,55.8,29.73,SSW,205,0.0,1.0,78,0.00,,,0.00,VWS V14.00,2013-05-14 09:10:00,
2013-05-14 04:15:00,62.5,55.9,29.73,SSW,206,0.0,1.0,79,0.00,,,0.00,VWS V14.00,2013-05-14 09:15:00,
2013-05-14 04:20:00,62.4,55.8,29.73,SSW,206,0.0,1.0,79,0.00,,,0.00,VWS V14.00,2013-05-14 09:20:00,
2013-05-14 04:25:00,62.3,55.7,29.73,SSW,205,0.0,1.0,79,0.00,,,0.00,VWS V14.00,2013-05-14 09:25:00,
2013-05-14 04:30:00,62.2,55.6,29.73,South,186,0.0,1.0,79,0.00,,,0.00,VWS V14.00,2013-05-14 09:30:00,
2013-05-14 04:35:00,62.1,55.9,29.73,SSW,205,0.0,0.0,80,0.00,,,0.00,VWS V14.00,2013-05-14 09:35:00,
2013-05-14 04:40:00,62.0,55.8,29.73,SSW,203,0.0,0.0,80,0.00,,,0.00,VWS V14.00,2013-05-14 09:40:00,
2013-05-14 04:45:00,62.0,55.8,29.73,SSW,202,0.0,1.0,80,0.00,,,0.00,VWS V14.00,2013-05-14 09:45:00,
2013-05-14 04:50:00,61.8,55.6,29.73,SSW,200,0.0,1.0,80,0.00,,,0.00,VWS V14.00,2013-05-14 09:50:00,
2013-05-14 04:55:00,61.8,55.6,29.73,SSW,197,0.0,1.0,80,0.00,,,0.00,VWS V14.00,2013-05-14 09:55:00,
2013-05-14 05:00:00,61.7,55.5,29.73,SSW,196,0.0,1.0,80,0.00,,,0.00,VWS V14.00,2013-05-14 10:00:00,
2013-05-14 05:05:00,61.6,55.4,29.73,SSW,196,0.0,0.0,80,0.00,,,0.00,VWS V14.00,2013-05-14 10:05:00,
2013-05-14 05:10:00,61.5,55.6,29.72,SSW,207,0.0,0.0,81,0.00,,,0.00,VWS V14.00,2013-05-14 10:10:00,
2013-05-14 05:15:00,61.4,55.5,29.72,SSW,206,0.0,0.0,81,0.00,,,0.00,VWS V14.00,2013-05-14 10:15:00,
2013-05-14 05:20:00,61.3,55.4,29.72,SSW,198,0.0,3.0,81,0.00,,,0.00,VWS V14.00,2013-05-14 10:20:00,
2013-05-14 05:25:00,61.2,55.3,29.72,SSW,199,0.0,3.0,81,0.00,,,0.00,VWS V14.00,2013-05-14 10:25:00,
2013-05-14 05:30:00,61.1,55.2,29.72,SSW,199,0.0,3.0,81,0.00,,,0.00,VWS V14.00,2013-05-14 10:30:00,
2013-05-14 05:35:00,61.1,55.2,29.73,South,175,0.0,0.0,81,0.00,,,0.00,VWS V14.00,2013-05-14 10:35:00,
2013-05-14 05:40:00,60.9,55.0,29.72,SSW,203,0.0,1.0,81,0.00,,,0.00,VWS V14.00,2013-05-14 10:40:00,
2013-05-14 05:45:00,60.8,55.3,29.72,SSW,200,0.0,1.0,82,0.00,,,0.00,VWS V14.00,2013-05-14 10:45:00,
2013-05-14 05:50:00,60.7,55.2,29.72,SSW,202,0.0,4.0,82,0.00,,,0.00,VWS V14.00,2013-05-14 10:50:00,
2013-05-14 05:55:00,60.7,55.2,29.72,SSW,201,0.0,4.0,82,0.00,,,0.00,VWS V14.00,2013-05-14 10:55:00,
2013-05-14 06:00:00,60.6,55.1,29.72,SSW,200,0.0,4.0,82,0.00,,,0.00,VWS V14.00,2013-05-14 11:00:00,
2013-05-14 06:05:00,60.5,55.0,29.72,SSW,200,0.0,0.0,82,0.00,,,0.00,VWS V14.00,2013-05-14 11:05:00,
2013-05-14 06:10:00,60.5,55.0,29.72,SSW,200,0.0,1.0,82,0.00,,,0.00,VWS V14.00,2013-05-14 11:10:00,
2013-05-14 06:15:00,60.4,54.9,29.72,SSW,200,0.0,1.0,82,0.00,,,0.00,VWS V14.00,2013-05-14 11:15:00,
2013-05-14 06:20:00,60.4,54.9,29.72,SSW,200,0.0,1.0,82,0.00,,,0.00,VWS V14.00,2013-05-14 11:20:00,
2013-05-14 06:25:00,60.3,54.8,29.72,SSW,199,0.0,2.0,82,0.00,,,0.00,VWS V14.00,2013-05-14 11:25:00,
2013-05-14 06:30:00,60.2,54.7,29.72,SSW,200,0.0,2.0,82,0.00,,,0.00,VWS V14.00,2013-05-14 11:30:00,
2013-05-14 06:35:00,60.2,54.7,29.72,SSW,198,1.0,1.0,82,0.00,,,0.00,VWS V14.00,2013-05-14 11:35:00,
2013-05-14 06:40:00,60.2,54.7,29.72,SSW,202,0.0,3.0,82,0.00,,,0.00,VWS V14.00,2013-05-14 11:40:00,
2013-05-14 06:45:00,60.2,55.0,29.72,SSW,210,0.0,4.0,83,0.00,,,0.00,VWS V14.00,2013-05-14 11:45:00,
2013-05-14 06:50:00,60.3,55.1,29.72,SSW,202,0.0,4.0,83,0.00,,,0.00,VWS V14.00,2013-05-14 11:50:00,
2013-05-14 06:55:00,60.5,55.3,29.72,SSW,202,3.0,4.0,83,0.00,,,0.00,VWS V14.00,2013-05-14 11:55:00,
2013-05-14 07:00:00,60.7,55.2,29.72,SSW,198,0.0,4.0,82,0.00,,,0.00,VWS V14.00,2013-05-14 12:00:00,
2013-05-14 07:05:00,60.9,55.4,29.72,SSW,209,0.0,2.0,82,0.00,,,0.00,VWS V14.00,2013-05-14 12:05:00,
2013-05-14 07:10:00,61.1,55.6,29.72,SSW,198,3.0,5.0,82,0.00,,,0.00,VWS V14.00,2013-05-14 12:10:00,
2013-05-14 07:15:00,61.4,55.5,29.72,SSW,197,0.0,5.0,81,0.00,,,0.00,VWS V14.00,2013-05-14 12:15:00,
2013-05-14 07:20:00,61.7,55.8,29.71,SSW,210,0.0,5.0,81,0.00,,,0.00,VWS V14.00,2013-05-14 12:20:00,
2013-05-14 07:25:00,62.0,55.8,29.72,SSW,194,3.0,5.0,80,0.00,,,0.00,VWS V14.00,2013-05-14 12:25:00,
2013-05-14 07:30:00,62.3,56.1,29.71,SW,214,3.0,6.0,80,0.00,,,0.00,VWS V14.00,2013-05-14 12:30:00,
2013-05-14 07:35:00,62.6,56.3,29.71,SSW,207,0.0,0.0,80,0.00,,,0.00,VWS V14.00,2013-05-14 12:35:00,
2013-05-14 07:40:00,62.9,56.3,29.71,SSW,202,3.0,5.0,79,0.00,,,0.00,VWS V14.00,2013-05-14 12:40:00,
2013-05-14 07:45:00,63.3,56.3,29.71,SSW,200,0.0,7.0,78,0.00,,,0.00,VWS V14.00,2013-05-14 12:45:00,
2013-05-14 07:50:00,63.8,56.8,29.71,SW,227,3.0,7.0,78,0.00,,,0.00,VWS V14.00,2013-05-14 12:50:00,
2013-05-14 07:55:00,64.3,57.0,29.71,South,186,0.0,9.0,77,0.00,,,0.00,VWS V14.00,2013-05-14 12:55:00,
2013-05-14 08:00:00,64.9,57.2,29.71,SSW,198,5.0,9.0,76,0.00,,,0.00,VWS V14.00,2013-05-14 13:00:00,
2013-05-14 08:05:00,65.5,57.4,29.71,SW,219,3.0,9.0,75,0.00,,,0.00,VWS V14.00,2013-05-14 13:05:00,
2013-05-14 08:10:00,66.3,57.0,29.71,SW,223,3.0,11.0,72,0.00,,,0.00,VWS V14.00,2013-05-14 13:10:00,
2013-05-14 08:15:00,67.2,57.5,29.71,South,188,9.0,11.0,71,0.00,,,0.00,VWS V14.00,2013-05-14 13:15:00,
2013-05-14 08:20:00,68.1,57.6,29.71,SSW,192,6.0,11.0,69,0.00,,,0.00,VWS V14.00,2013-05-14 13:20:00,
2013-05-14 08:25:00,69.0,57.2,29.71,SSW,201,9.0,11.0,66,0.00,,,0.00,VWS V14.00,2013-05-14 13:25:00,
2013-05-14 08:30:00,70.0,57.3,29.71,SSW,204,6.0,11.0,64,0.00,,,0.00,VWS V14.00,2013-05-14 13:30:00,
2013-05-14 08:35:00,70.8,56.7,29.70,SSW,211,3.0,11.0,61,0.00,,,0.00,VWS V14.00,2013-05-14 13:35:00,
2013-05-14 08:40:00,71.6,57.0,29.70,SSW,213,6.0,9.0,60,0.00,,,0.00,VWS V14.00,2013-05-14 13:40:00,
2013-05-14 08:45:00,72.5,57.4,29.70,SW,222,5.0,9.0,59,0.00,,,0.00,VWS V14.00,2013-05-14 13:45:00,
2013-05-14 08:50:00,73.3,57.2,29.70,WSW,241,5.0,9.0,57,0.00,,,0.00,VWS V14.00,2013-05-14 13:50:00,
2013-05-14 08:55:00,74.2,57.5,29.70,SW,217,4.0,9.0,56,0.00,,,0.00,VWS V14.00,2013-05-14 13:55:00,
2013-05-14 09:00:00,74.9,57.2,29.70,WSW,240,4.0,9.0,54,0.00,,,0.00,VWS V14.00,2013-05-14 14:00:00,
2013-05-14 09:05:00,75.6,57.3,29.70,SW,222,0.0,9.0,53,0.00,,,0.00,VWS V14.00,2013-05-14 14:05:00,
2013-05-14 09:10:00,76.2,57.3,29.70,SW,236,0.0,6.0,52,0.00,,,0.00,VWS V14.00,2013-05-14 14:10:00,
2013-05-14 09:15:00,76.8,57.3,29.70,SSW,207,0.0,6.0,51,0.00,,,0.00,VWS V14.00,2013-05-14 14:15:00,
2013-05-14 09:20:00,77.6,57.5,29.70,SSW,200,2.0,7.0,50,0.00,,,0.00,VWS V14.00,2013-05-14 14:20:00,
2013-05-14 09:25:00,78.3,57.6,29.70,SSW,207,0.0,7.0,49,0.00,,,0.00,VWS V14.00,2013-05-14 14:25:00,
2013-05-14 09:30:00,78.9,57.0,29.69,SW,226,0.0,9.0,47,0.00,,,0.00,VWS V14.00,2013-05-14 14:30:00,
2013-05-14 09:35:00,79.6,57.0,29.69,SSW,194,0.0,9.0,46,0.00,,,0.00,VWS V14.00,2013-05-14 14:35:00,
2013-05-14 09:40:00,80.2,56.3,29.69,SW,228,0.0,9.0,44,0.00,,,0.00,VWS V14.00,2013-05-14 14:40:00,
2013-05-14 09:45:00,81.1,57.2,29.69,SSW,211,0.0,10.0,44,0.00,,,0.00,VWS V14.00,2013-05-14 14:45:00,
2013-05-14 09:49:00,81.7,57.0,29.69,SW,228,0.0,10.0,43,0.00,,,0.00,VWS V14.00,2013-05-14 14:49:00,
2013-05-14 09:54:00,82.5,57.1,29.69,SSW,213,0.0,10.0,42,0.00,,,0.00,VWS V14.00,2013-05-14 14:54:00,
2013-05-14 09:59:00,83.4,57.3,29.69,SW,217,0.0,10.0,41,0.00,,,0.00,VWS V14.00,2013-05-14 14:59:00,
2013-05-14 10:04:00,84.4,56.8,29.69,South,183,0.0,10.0,39,0.00,,,0.00,VWS V14.00,2013-05-14 15:04:00,
2013-05-14 10:09:00,84.9,57.2,29.69,SW,230,4.0,11.0,39,0.00,,,0.00,VWS V14.00,2013-05-14 15:09:00,
2013-05-14 10:14:00,85.5,57.0,29.69,SSW,193,0.0,11.0,38,0.00,,,0.00,VWS V14.00,2013-05-14 15:14:00,
2013-05-14 10:19:00,86.5,57.2,29.68,SSW,211,0.0,11.0,37,0.00,,,0.00,VWS V14.00,2013-05-14 15:19:00,
2013-05-14 10:24:00,87.2,57.0,29.68,South,189,0.0,11.0,36,0.00,,,0.00,VWS V14.00,2013-05-14 15:24:00,
2013-05-14 10:29:00,87.9,56.9,29.68,South,182,0.0,11.0,35,0.00,,,0.00,VWS V14.00,2013-05-14 15:29:00,
2013-05-14 10:34:00,88.6,55.8,29.68,SW,217,0.0,11.0,33,0.00,,,0.00,VWS V14.00,2013-05-14 15:34:00,
2013-05-14 10:39:00,89.3,56.5,29.68,SSW,198,0.0,10.0,33,0.00,,,0.00,VWS V14.00,2013-05-14 15:39:00,
2013-05-14 10:44:00,89.9,56.1,29.68,SSW,198,1.0,10.0,32,0.00,,,0.00,VWS V14.00,2013-05-14 15:44:00,
2013-05-14 10:49:00,90.4,57.4,29.68,WSW,252,0.0,10.0,33,0.00,,,0.00,VWS V14.00,2013-05-14 15:49:00,
2013-05-14 10:54:00,91.1,57.2,29.68,SSW,192,1.0,10.0,32,0.00,,,0.00,VWS V14.00,2013-05-14 15:54:00,
2013-05-14 10:59:00,91.7,56.8,29.68,South,183,4.0,11.0,31,0.00,,,0.00,VWS V14.00,2013-05-14 15:59:00,
2013-05-14 11:04:00,92.1,57.2,29.67,South,191,0.0,11.0,31,0.00,,,0.00,VWS V14.00,2013-05-14 16:04:00,
2013-05-14 11:09:00,92.8,56.8,29.68,SSW,200,9.0,11.0,30,0.00,,,0.00,VWS V14.00,2013-05-14 16:09:00,
2013-05-14 11:14:00,92.9,56.9,29.67,WSW,243,0.0,13.0,30,0.00,,,0.00,VWS V14.00,2013-05-14 16:14:00,
2013-05-14 11:19:00,93.7,56.7,29.67,South,169,0.0,13.0,29,0.00,,,0.00,VWS V14.00,2013-05-14 16:19:00,
2013-05-14 11:24:00,94.4,57.3,29.67,SSW,198,11.0,19.0,29,0.00,,,0.00,VWS V14.00,2013-05-14 16:24:00,
2013-05-14 11:29:00,94.5,56.4,29.67,South,183,14.0,19.0,28,0.00,,,0.00,VWS V14.00,2013-05-14 16:29:00,
2013-05-14 11:34:00,94.8,56.7,29.67,WSW,244,9.0,19.0,28,0.00,,,0.00,VWS V14.00,2013-05-14 16:34:00,
2013-05-14 11:39:00,95.4,56.2,29.67,SSW,192,7.0,13.0,27,0.00,,,0.00,VWS V14.00,2013-05-14 16:39:00,
2013-05-14 11:44:00,96.1,56.7,29.67,South,179,6.0,15.0,27,0.00,,,0.00,VWS V14.00,2013-05-14 16:44:00,
2013-05-14 11:49:00,96.6,57.2,29.66,South,174,10.0,15.0,27,0.00,,,0.00,VWS V14.00,2013-05-14 16:49:00,
2013-05-14 11:54:00,97.1,56.5,29.66,SW,236,16.0,16.0,26,0.00,,,0.00,VWS V14.00,2013-05-14 16:54:00,
2013-05-14 11:59:00,97.5,55.8,29.66,SSW,213,9.0,18.0,25,0.00,,,0.00,VWS V14.00,2013-05-14 16:59:00,
2013-05-14 12:04:00,98.2,56.4,29.66,SSW,210,7.0,18.0,25,0.00,,,0.00,VWS V14.00,2013-05-14 17:04:00,
2013-05-14 12:09:00,98.6,54.4,29.65,SW,226,16.0,21.0,23,0.00,,,0.00,VWS V14.00,2013-05-14 17:09:00,
2013-05-14 12:14:00,98.7,54.5,29.65,SSW,198,10.0,25.0,23,0.00,,,0.00,VWS V14.00,2013-05-14 17:14:00,
2013-05-14 12:19:00,98.8,52.1,29.65,SSW,207,6.0,25.0,21,0.00,,,0.00,VWS V14.00,2013-05-14 17:19:00,
2013-05-14 12:24:00,99.1,53.6,29.65,SSW,204,6.0,25.0,22,0.00,,,0.00,VWS V14.00,2013-05-14 17:24:00,
2013-05-14 12:29:00,99.4,53.9,29.65,SE,128,6.0,25.0,22,0.00,,,0.00,VWS V14.00,2013-05-14 17:29:00,
2013-05-14 12:34:00,99.5,52.7,29.64,SW,230,12.0,25.0,21,0.00,,,0.00,VWS V14.00,2013-05-14 17:34:00,
2013-05-14 12:39:00,99.6,54.0,29.64,South,183,16.0,20.0,22,0.00,,,0.00,VWS V14.00,2013-05-14 17:39:00,
2013-05-14 12:44:00,99.9,53.0,29.64,SSE,161,4.0,22.0,21,0.00,,,0.00,VWS V14.00,2013-05-14 17:44:00,
2013-05-14 12:49:00,100.1,54.5,29.63,SW,215,13.0,22.0,22,0.00,,,0.00,VWS V14.00,2013-05-14 17:49:00,
2013-05-14 12:54:00,100.1,50.5,29.63,WSW,240,9.0,22.0,19,0.00,,,0.00,VWS V14.00,2013-05-14 17:54:00,
2013-05-14 12:59:00,100.0,51.8,29.63,South,188,14.0,24.0,20,0.00,,,0.00,VWS V14.00,2013-05-14 17:59:00,
2013-05-14 13:04:00,100.1,51.8,29.62,SE,141,4.0,25.0,20,0.00,,,0.00,VWS V14.00,2013-05-14 18:04:00,
2013-05-14 13:09:00,100.7,52.3,29.62,South,187,11.0,23.0,20,0.00,,,0.00,VWS V14.00,2013-05-14 18:09:00,
2013-05-14 13:14:00,100.9,52.5,29.62,South,179,6.0,23.0,20,0.00,,,0.00,VWS V14.00,2013-05-14 18:14:00,
2013-05-14 13:19:00,101.4,51.5,29.61,WSW,240,11.0,23.0,19,0.00,,,0.00,VWS V14.00,2013-05-14 18:19:00,
2013-05-14 13:24:00,101.4,51.5,29.61,SSW,196,15.0,23.0,19,0.00,,,0.00,VWS V14.00,2013-05-14 18:24:00,
2013-05-14 13:29:00,101.6,50.2,29.61,SE,144,11.0,23.0,18,0.00,,,0.00,VWS V14.00,2013-05-14 18:29:00,
2013-05-14 13:34:00,101.6,50.2,29.61,SSW,213,17.0,30.0,18,0.00,,,0.00,VWS V14.00,2013-05-14 18:34:00,
2013-05-14 13:39:00,101.2,49.9,29.61,SW,221,6.0,24.0,18,0.00,,,0.00,VWS V14.00,2013-05-14 18:39:00,
2013-05-14 13:44:00,101.2,49.9,29.61,SW,221,16.0,25.0,18,0.00,,,0.00,VWS V14.00,2013-05-14 18:44:00,
2013-05-14 13:49:00,101.3,50.0,29.61,SSW,209,18.0,28.0,18,0.00,,,0.00,VWS V14.00,2013-05-14 18:49:00,
2013-05-14 13:54:00,101.3,50.0,29.61,WSW,257,15.0,28.0,18,0.00,,,0.00,VWS V14.00,2013-05-14 18:54:00,
2013-05-14 13:59:00,101.2,51.4,29.61,WSW,252,6.0,28.0,19,0.00,,,0.00,VWS V14.00,2013-05-14 18:59:00,
2013-05-14 14:04:00,101.4,51.5,29.61,South,191,9.0,28.0,19,0.00,,,0.00,VWS V14.00,2013-05-14 19:04:00,
2013-05-14 14:09:00,101.6,50.2,29.61,South,187,19.0,21.0,18,0.00,,,0.00,VWS V14.00,2013-05-14 19:09:00,
2013-05-14 14:14:00,101.4,51.5,29.60,South,176,5.0,23.0,19,0.00,,,0.00,VWS V14.00,2013-05-14 19:14:00,
2013-05-14 14:19:00,101.8,53.2,29.61,SSW,211,14.0,23.0,20,0.00,,,0.00,VWS V14.00,2013-05-14 19:19:00,
2013-05-14 14:24:00,101.7,51.8,29.61,SW,217,19.0,23.0,19,0.00,,,0.00,VWS V14.00,2013-05-14 19:24:00,
2013-05-14 14:29:00,101.6,51.7,29.60,South,173,10.0,23.0,19,0.00,,,0.00,VWS V14.00,2013-05-14 19:29:00,
2013-05-14 14:34:00,101.4,51.5,29.60,SSW,195,6.0,23.0,19,0.00,,,0.00,VWS V14.00,2013-05-14 19:34:00,
2013-05-14 14:39:00,101.4,51.5,29.60,WSW,237,10.0,26.0,19,0.00,,,0.00,VWS V14.00,2013-05-14 19:39:00,
2013-05-14 14:44:00,101.3,51.4,29.60,SW,234,12.0,26.0,19,0.00,,,0.00,VWS V14.00,2013-05-14 19:44:00,
2013-05-14 14:49:00,101.1,51.3,29.60,West,261,3.0,26.0,19,0.00,,,0.00,VWS V14.00,2013-05-14 19:49:00,
2013-05-14 14:54:00,101.0,52.6,29.60,SSW,202,11.0,28.0,20,0.00,,,0.00,VWS V14.00,2013-05-14 19:54:00,
2013-05-14 14:59:00,101.1,52.7,29.60,SW,225,10.0,28.0,20,0.00,,,0.00,VWS V14.00,2013-05-14 19:59:00,
2013-05-14 15:04:00,101.3,52.8,29.60,WSW,248,10.0,28.0,20,0.00,,,0.00,VWS V14.00,2013-05-14 20:04:00,
2013-05-14 15:09:00,101.3,54.2,29.60,SSW,212,6.0,25.0,21,0.00,,,0.00,VWS V14.00,2013-05-14 20:09:00,
2013-05-14 15:14:00,101.2,54.1,29.60,WSW,242,19.0,25.0,21,0.00,,,0.00,VWS V14.00,2013-05-14 20:14:00,
2013-05-14 15:19:00,101.0,52.6,29.59,SW,219,22.0,25.0,20,0.00,,,0.00,VWS V14.00,2013-05-14 20:19:00,
2013-05-14 15:24:00,100.7,53.7,29.59,SW,236,15.0,31.0,21,0.00,,,0.00,VWS V14.00,2013-05-14 20:24:00,
2013-05-14 15:29:00,100.3,53.3,29.59,SSW,192,5.0,31.0,21,0.00,,,0.00,VWS V14.00,2013-05-14 20:29:00,
2013-05-14 15:34:00,100.3,53.3,29.59,SSW,203,6.0,31.0,21,0.00,,,0.00,VWS V14.00,2013-05-14 20:34:00,
2013-05-14 15:39:00,100.1,53.2,29.59,SSE,165,7.0,28.0,21,0.00,,,0.00,VWS V14.00,2013-05-14 20:39:00,
2013-05-14 15:44:00,100.0,53.1,29.58,SSW,198,14.0,28.0,21,0.00,,,0.00,VWS V14.00,2013-05-14 20:44:00,
2013-05-14 15:49:00,99.9,53.0,29.58,SSW,192,24.0,30.0,21,0.00,,,0.00,VWS V14.00,2013-05-14 20:49:00,
2013-05-14 15:54:00,99.6,54.0,29.58,SSE,161,2.0,30.0,22,0.00,,,0.00,VWS V14.00,2013-05-14 20:54:00,
2013-05-14 15:59:00,99.8,54.2,29.58,SSW,195,2.0,30.0,22,0.00,,,0.00,VWS V14.00,2013-05-14 20:59:00,
2013-05-14 16:04:00,100.0,54.4,29.58,South,187,16.0,30.0,22,0.00,,,0.00,VWS V14.00,2013-05-14 21:04:00,
2013-05-14 16:08:00,99.8,54.2,29.58,SSW,206,14.0,30.0,22,0.00,,,0.00,VWS V14.00,2013-05-14 21:08:00,
2013-05-14 16:13:00,99.9,55.5,29.58,SW,221,7.0,30.0,23,0.00,,,0.00,VWS V14.00,2013-05-14 21:13:00,
2013-05-14 16:18:00,99.9,54.3,29.57,SSW,203,10.0,30.0,22,0.00,,,0.00,VWS V14.00,2013-05-14 21:18:00,
2013-05-14 16:23:00,99.7,54.1,29.57,South,173,11.0,30.0,22,0.00,,,0.00,VWS V14.00,2013-05-14 21:23:00,
2013-05-14 16:28:00,99.9,55.5,29.57,SW,219,9.0,30.0,23,0.00,,,0.00,VWS V14.00,2013-05-14 21:28:00,
2013-05-14 16:33:00,99.8,55.4,29.57,SSW,200,23.0,30.0,23,0.00,,,0.00,VWS V14.00,2013-05-14 21:33:00,
2013-05-14 16:38:00,99.4,55.1,29.56,SW,223,24.0,32.0,23,0.00,,,0.00,VWS V14.00,2013-05-14 21:38:00,
2013-05-14 16:43:00,99.1,54.8,29.56,SSW,207,10.0,32.0,23,0.00,,,0.00,VWS V14.00,2013-05-14 21:43:00,
2013-05-14 16:48:00,99.1,53.6,29.57,SSE,161,0.0,32.0,22,0.00,,,0.00,VWS V14.00,2013-05-14 21:48:00,
2013-05-14 16:53:00,99.1,54.8,29.56,SW,227,10.0,32.0,23,0.00,,,0.00,VWS V14.00,2013-05-14 21:53:00,
2013-05-14 16:58:00,99.1,54.8,29.56,SSW,205,3.0,32.0,23,0.00,,,0.00,VWS V14.00,2013-05-14 21:58:00,
2013-05-14 17:03:00,99.3,55.0,29.56,SW,216,11.0,32.0,23,0.00,,,0.00,VWS V14.00,2013-05-14 22:03:00,
2013-05-14 17:08:00,99.3,55.0,29.56,SW,230,11.0,30.0,23,0.00,,,0.00,VWS V14.00,2013-05-14 22:08:00,
2013-05-14 17:13:00,99.3,55.0,29.56,SSW,194,13.0,30.0,23,0.00,,,0.00,VWS V14.00,2013-05-14 22:13:00,
2013-05-14 17:18:00,99.3,55.0,29.56,South,185,9.0,30.0,23,0.00,,,0.00,VWS V14.00,2013-05-14 22:18:00,
2013-05-14 17:23:00,99.4,55.1,29.56,SW,224,9.0,30.0,23,0.00,,,0.00,VWS V14.00,2013-05-14 22:23:00,
2013-05-14 17:28:00,99.4,55.1,29.56,SSW,200,7.0,30.0,23,0.00,,,0.00,VWS V14.00,2013-05-14 22:28:00,
2013-05-14 17:33:00,99.2,53.7,29.56,South,186,22.0,30.0,22,0.00,,,0.00,VWS V14.00,2013-05-14 22:33:00,
2013-05-14 17:38:00,99.1,54.8,29.56,SW,236,9.0,19.0,23,0.00,,,0.00,VWS V14.00,2013-05-14 22:38:00,
2013-05-14 17:43:00,99.2,54.9,29.56,SW,216,12.0,19.0,23,0.00,,,0.00,VWS V14.00,2013-05-14 22:43:00,
2013-05-14 17:48:00,99.2,54.9,29.56,SSW,193,11.0,22.0,23,0.00,,,0.00,VWS V14.00,2013-05-14 22:48:00,
2013-05-14 17:53:00,98.9,54.7,29.56,SSW,205,0.0,22.0,23,0.00,,,0.00,VWS V14.00,2013-05-14 22:53:00,
2013-05-14 17:58:00,98.7,54.5,29.57,SSE,159,15.0,22.0,23,0.00,,,0.00,VWS V14.00,2013-05-14 22:58:00,
2013-05-14 18:03:00,98.2,54.1,29.57,SSW,209,3.0,24.0,23,0.00,,,0.00,VWS V14.00,2013-05-14 23:03:00,
2013-05-14 18:08:00,97.7,52.5,29.57,SW,221,4.0,17.0,22,0.00,,,0.00,VWS V14.00,2013-05-14 23:08:00,
2013-05-14 18:13:00,97.3,53.3,29.57,WSW,245,0.0,17.0,23,0.00,,,0.00,VWS V14.00,2013-05-14 23:13:00,
2013-05-14 18:18:00,97.0,51.9,29.58,WSW,242,0.0,17.0,22,0.00,,,0.00,VWS V14.00,2013-05-14 23:18:00,
2013-05-14 18:23:00,96.7,51.6,29.58,SSW,212,0.0,17.0,22,0.00,,,0.00,VWS V14.00,2013-05-14 23:23:00,
2013-05-14 18:28:00,96.5,52.7,29.59,WSW,244,4.0,17.0,23,0.00,,,0.00,VWS V14.00,2013-05-14 23:28:00,
2013-05-14 18:33:00,96.2,52.4,29.58,SW,214,6.0,17.0,23,0.00,,,0.00,VWS V14.00,2013-05-14 23:33:00,
2013-05-14 18:38:00,95.9,54.5,29.58,South,169,0.0,10.0,25,0.00,,,0.00,VWS V14.00,2013-05-14 23:38:00,
2013-05-14 18:43:00,95.5,54.1,29.58,SSW,202,2.0,14.0,25,0.00,,,0.00,VWS V14.00,2013-05-14 23:43:00,
2013-05-14 18:48:00,94.9,54.7,29.59,SW,233,12.0,17.0,26,0.00,,,0.00,VWS V14.00,2013-05-14 23:48:00,
2013-05-14 18:53:00,94.3,54.2,29.59,West,281,9.0,29.0,26,0.00,,,0.00,VWS V14.00,2013-05-14 23:53:00,
2013-05-14 18:58:00,93.3,54.4,29.59,SW,222,4.0,29.0,27,0.00,,,0.00,VWS V14.00,2013-05-14 23:58:00,
2013-05-14 19:03:00,92.2,53.4,29.59,SW,222,19.0,30.0,27,0.00,,,0.00,VWS V14.00,2013-05-15 00:03:00,
2013-05-14 19:08:00,91.5,52.8,29.58,SW,236,13.0,28.0,27,0.00,,,0.00,VWS V14.00,2013-05-15 00:08:00,
2013-05-14 19:13:00,90.9,52.3,29.58,SSW,211,12.0,28.0,27,0.00,,,0.00,VWS V14.00,2013-05-15 00:13:00,
2013-05-14 19:18:00,91.0,50.3,29.58,WNW,302,17.0,37.0,25,0.00,,,0.00,VWS V14.00,2013-05-15 00:18:00,
2013-05-14 19:23:00,91.0,51.4,29.59,West,259,22.0,37.0,26,0.00,,,0.00,VWS V14.00,2013-05-15 00:23:00,
2013-05-14 19:28:00,90.6,51.0,29.59,West,269,7.0,37.0,26,0.00,,,0.00,VWS V14.00,2013-05-15 00:28:00,
2013-05-14 19:33:00,90.6,52.1,29.60,SW,234,19.0,37.0,27,0.00,,,0.00,VWS V14.00,2013-05-15 00:33:00,
2013-05-14 19:38:00,90.2,51.7,29.61,West,274,17.0,22.0,27,0.00,,,0.00,VWS V14.00,2013-05-15 00:38:00,
2013-05-14 19:43:00,89.9,51.5,29.60,SW,217,6.0,22.0,27,0.00,,,0.00,VWS V14.00,2013-05-15 00:43:00,
2013-05-14 19:48:00,89.6,51.2,29.59,SSW,192,3.0,22.0,27,0.00,,,0.00,VWS V14.00,2013-05-15 00:48:00,
2013-05-14 19:53:00,89.3,52.0,29.59,SW,226,2.0,22.0,28,0.00,,,0.00,VWS V14.00,2013-05-15 00:53:00,
2013-05-14 19:58:00,89.1,51.8,29.59,WSW,246,6.0,22.0,28,0.00,,,0.00,VWS V14.00,2013-05-15 00:58:00,
2013-05-14 20:03:00,89.1,51.8,29.59,SSW,209,3.0,22.0,28,0.00,,,0.00,VWS V14.00,2013-05-15 01:03:00,
2013-05-14 20:08:00,89.3,51.0,29.59,SW,215,4.0,12.0,27,0.00,,,0.00,VWS V14.00,2013-05-15 01:08:00,
2013-05-14 20:13:00,89.4,51.0,29.59,SSW,210,3.0,12.0,27,0.00,,,0.00,VWS V14.00,2013-05-15 01:13:00,
2013-05-14 20:18:00,89.5,51.1,29.59,SSE,164,0.0,13.0,27,0.00,,,0.00,VWS V14.00,2013-05-15 01:18:00,
2013-05-14 20:23:00,89.5,51.1,29.59,SSE,159,1.0,13.0,27,0.00,,,0.00,VWS V14.00,2013-05-15 01:23:00,
2013-05-14 20:28:00,89.7,51.3,29.59,SSW,210,4.0,17.0,27,0.00,,,0.00,VWS V14.00,2013-05-15 01:28:00,
2013-05-14 20:33:00,89.8,51.4,29.60,South,181,13.0,17.0,27,0.00,,,0.00,VWS V14.00,2013-05-15 01:33:00,
2013-05-14 20:38:00,89.8,52.4,29.60,South,180,7.0,17.0,28,0.00,,,0.00,VWS V14.00,2013-05-15 01:38:00,
2013-05-14 20:43:00,89.6,53.2,29.60,SSW,205,9.0,18.0,29,0.00,,,0.00,VWS V14.00,2013-05-15 01:43:00,
2013-05-14 20:48:00,89.3,52.9,29.60,SSE,159,12.0,21.0,29,0.00,,,0.00,VWS V14.00,2013-05-15 01:48:00,
2013-05-14 20:53:00,89.1,53.7,29.60,South,175,15.0,21.0,30,0.00,,,0.00,VWS V14.00,2013-05-15 01:53:00,
2013-05-14 20:58:00,88.8,53.4,29.59,SSE,167,11.0,21.0,30,0.00,,,0.00,VWS V14.00,2013-05-15 01:58:00,
2013-05-14 21:03:00,88.6,52.3,29.60,South,172,5.0,21.0,29,0.00,,,0.00,VWS V14.00,2013-05-15 02:03:00,
2013-05-14 21:08:00,88.6,52.3,29.62,SSW,196,5.0,11.0,29,0.00,,,0.00,VWS V14.00,2013-05-15 02:08:00,
2013-05-14 21:13:00,88.4,52.1,29.62,SSE,153,1.0,11.0,29,0.00,,,0.00,VWS V14.00,2013-05-15 02:13:00,
2013-05-14 21:18:00,88.2,52.9,29.63,SSW,197,0.0,11.0,30,0.00,,,0.00,VWS V14.00,2013-05-15 02:18:00,
2013-05-14 21:23:00,87.9,53.5,29.63,WNW,285,0.0,11.0,31,0.00,,,0.00,VWS V14.00,2013-05-15 02:23:00,
2013-05-14 21:28:00,87.6,53.3,29.64,West,269,0.0,11.0,31,0.00,,,0.00,VWS V14.00,2013-05-15 02:28:00,
2013-05-14 21:33:00,87.1,53.7,29.64,SW,232,0.0,11.0,32,0.00,,,0.00,VWS V14.00,2013-05-15 02:33:00,
2013-05-14 21:38:00,86.9,53.5,29.64,WSW,244,0.0,0.0,32,0.00,,,0.00,VWS V14.00,2013-05-15 02:38:00,
2013-05-14 21:43:00,86.5,54.0,29.64,WSW,244,0.0,1.0,33,0.00,,,0.00,VWS V14.00,2013-05-15 02:43:00,
2013-05-14 21:48:00,86.1,53.7,29.64,WSW,252,0.0,1.0,33,0.00,,,0.00,VWS V14.00,2013-05-15 02:48:00,
2013-05-14 21:52:00,85.8,53.4,29.65,WSW,252,0.0,1.0,33,0.00,,,0.00,VWS V14.00,2013-05-15 02:52:00,
2013-05-14 21:57:00,85.5,54.0,29.65,SSW,208,0.0,1.0,34,0.00,,,0.00,VWS V14.00,2013-05-15 02:57:00,
2013-05-14 22:02:00,85.2,54.5,29.65,SSW,207,0.0,1.0,35,0.00,,,0.00,VWS V14.00,2013-05-15 03:02:00,
2013-05-14 22:07:00,84.8,54.9,29.65,South,178,0.0,2.0,36,0.00,,,0.00,VWS V14.00,2013-05-15 03:07:00,
2013-05-14 22:12:00,84.2,55.1,29.64,South,186,0.0,16.0,37,0.00,,,0.00,VWS V14.00,2013-05-15 03:12:00,
2013-05-14 22:17:00,83.6,54.6,29.64,West,269,9.0,16.0,37,0.00,,,0.00,VWS V14.00,2013-05-15 03:17:00,
2013-05-14 22:22:00,83.3,55.1,29.65,WSW,246,0.0,16.0,38,0.00,,,0.00,VWS V14.00,2013-05-15 03:22:00,
2013-05-14 22:27:00,83.0,54.8,29.65,West,260,0.0,16.0,38,0.00,,,0.00,VWS V14.00,2013-05-15 03:27:00,
2013-05-14 22:32:00,82.7,55.2,29.67,NW,322,0.0,16.0,39,0.00,,,0.00,VWS V14.00,2013-05-15 03:32:00,
2013-05-14 22:37:00,82.5,55.1,29.67,NW,304,0.0,0.0,39,0.00,,,0.00,VWS V14.00,2013-05-15 03:37:00,
2013-05-14 22:42:00,82.2,54.8,29.67,WNW,299,0.0,2.0,39,0.00,,,0.00,VWS V14.00,2013-05-15 03:42:00,
2013-05-14 22:47:00,82.0,54.6,29.67,WNW,299,0.0,2.0,39,0.00,,,0.00,VWS V14.00,2013-05-15 03:47:00,
2013-05-14 22:52:00,81.8,54.5,29.67,WNW,302,0.0,2.0,39,0.00,,,0.00,VWS V14.00,2013-05-15 03:52:00,
2013-05-14 22:57:00,81.7,54.4,29.67,WNW,302,0.0,2.0,39,0.00,,,0.00,VWS V14.00,2013-05-15 03:57:00,
2013-05-14 23:01:00,81.6,54.3,29.67,WNW,302,0.0,2.0,39,0.00,,,0.00,VWS V14.00,2013-05-15 04:01:00,
2013-05-14 23:06:00,81.5,54.9,29.67,WNW,302,0.0,0.0,40,0.00,,,0.00,VWS V14.00,2013-05-15 04:06:00,
2013-05-14 23:11:00,81.3,54.7,29.67,WNW,302,0.0,0.0,40,0.00,,,0.00,VWS V14.00,2013-05-15 04:11:00,
2013-05-14 23:16:00,81.1,51.7,29.68,NNW,339,0.0,3.0,36,0.00,,,0.00,VWS V14.00,2013-05-15 04:16:00,
2013-05-14 23:21:00,81.1,53.1,29.69,ENE,74,0.0,3.0,38,0.00,,,0.00,VWS V14.00,2013-05-15 04:21:00,
2013-05-14 23:26:00,80.9,53.7,29.69,ENE,74,0.0,3.0,39,0.00,,,0.00,VWS V14.00,2013-05-15 04:26:00,
2013-05-14 23:31:00,80.7,50.5,29.69,ENE,61,0.0,3.0,35,0.00,,,0.00,VWS V14.00,2013-05-15 04:31:00,
2013-05-14 23:36:00,80.7,49.8,29.69,ENE,61,0.0,0.0,34,0.00,,,0.00,VWS V14.00,2013-05-15 04:36:00,
2013-05-14 23:41:00,80.6,50.5,29.69,ENE,60,0.0,0.0,35,0.00,,,0.00,VWS V14.00,2013-05-15 04:41:00,
2013-05-14 23:46:00,80.5,48.8,29.69,ENE,60,0.0,0.0,33,0.00,,,0.00,VWS V14.00,2013-05-15 04:46:00,
2013-05-14 23:51:00,80.4,47.0,29.69,North,350,0.0,3.0,31,0.00,,,0.00,VWS V14.00,2013-05-15 04:51:00,
2013-05-14 23:56:00,80.3,47.8,29.70,NNW,337,0.0,3.0,32,0.00,,,0.00,VWS V14.00,2013-05-15 04:56:00,